OpenBCM V1.13 (Linux)

Packet Radio Mailbox

DB0FHN

[JN59NK Nuernberg]

 Login: GUEST





  
CX2SA  > KEPS     29.10.04 06:22l 151 Lines 3942 Bytes #999 (0) @ AMSAT
BID : ORB04302.O
Read: GUEST
Subj: Orbital Elements  04302.OSCAR
Path: DB0FHN<DB0RGB<OK0PPL<DB0RES<ON0AR<TU5EX<CX2SA
Sent: 041029/0416Z @:CX2SA.LAV.URY.SA #:32066 [Minas] FBB7.00e $:ORB04302.O
From: CX2SA@CX2SA.LAV.URY.SA
To  : KEPS@AMSAT


HR AMSAT ORBITAL ELEMENTS FOR OSCAR SATELLITES
FROM WA5QGD FORT WORTH,TX October 28, 2004
SEND SUBSCRIBE/UNSUBSCRIBE TO majordomo@amsat.org ONLY
BID: ORB04302.O
TO ALL RADIO AMATEURS BT

Satellite: AO-07
Catalog number: 07530
Epoch time:      04302.15467529
Element set:     339
Inclination:      101.6653 deg
RA of node:       346.7326 deg
Eccentricity:    0.0011840
Arg of perigee:   324.5069 deg
Mean anomaly:      35.5215 deg
Mean motion:   12.53569129 rev/day
Decay rate:       -2.9e-07 rev/day^2
Epoch rev:           37057
Checksum:              290

Satellite: AO-10
Catalog number: 14129
Epoch time:      04302.66917120
Element set:     115
Inclination:       26.7436 deg
RA of node:        64.3881 deg
Eccentricity:    0.6033752
Arg of perigee:   136.0787 deg
Mean anomaly:     292.0129 deg
Mean motion:    2.05868405 rev/day
Decay rate:       -6.6e-07 rev/day^2
Epoch rev:           16076
Checksum:              289

Satellite: UO-11
Catalog number: 14781
Epoch time:      04302.78967895
Element set:     620
Inclination:       98.1876 deg
RA of node:       289.9241 deg
Eccentricity:    0.0009602
Arg of perigee:    30.5051 deg
Mean anomaly:     329.6715 deg
Mean motion:   14.79035925 rev/day
Decay rate:       5.76e-06 rev/day^2
Epoch rev:           10759
Checksum:              332

Satellite: RS-10/11
Catalog number: 18129
Epoch time:      04302.24227537
Element set:     528
Inclination:       82.9267 deg
RA of node:        49.6981 deg
Eccentricity:    0.0010953
Arg of perigee:   318.6709 deg
Mean anomaly:      41.3619 deg
Mean motion:   13.72746763 rev/day
Decay rate:        4.5e-07 rev/day^2
Epoch rev:           86925
Checksum:              323

Satellite: FO-20
Catalog number: 20480
Epoch time:      04302.22404114
Element set:     729
Inclination:       99.0268 deg
RA of node:       154.5315 deg
Eccentricity:    0.0540859
Arg of perigee:    45.4586 deg
Mean anomaly:     318.9393 deg
Mean motion:   12.83342516 rev/day
Decay rate:       -2.5e-07 rev/day^2
Epoch rev:           68974
Checksum:              306

Satellite: RS-12/13
Catalog number: 21089
Epoch time:      04301.94532047
Element set:    0760
Inclination:      082.9178 deg
RA of node:       083.2421 deg
Eccentricity:    0.0029969
Arg of perigee:   009.5749 deg
Mean anomaly:     350.5971 deg
Mean motion:   13.74442186 rev/day
Decay rate:        4.7e-07 rev/day^2
Epoch rev:           68859
Checksum:              334

Satellite: RS-15
Catalog number: 23439
Epoch time:      04301.94361551
Element set:    0831
Inclination:      064.8132 deg
RA of node:       123.1405 deg
Eccentricity:    0.0156821
Arg of perigee:   357.4988 deg
Mean anomaly:     002.5138 deg
Mean motion:   11.27550220 rev/day
Decay rate:       -3.9e-07 rev/day^2
Epoch rev:           40520
Checksum:              267

Satellite: FO-29
Catalog number: 24278
Epoch time:      04301.84576547
Element set:     816
Inclination:       98.5810 deg
RA of node:        16.4061 deg
Eccentricity:    0.0351425
Arg of perigee:    58.1654 deg
Mean anomaly:     305.3195 deg
Mean motion:   13.52903998 rev/day
Decay rate:       -5.0e-07 rev/day^2
Epoch rev:           40477
Checksum:              315

Satellite: SO-33
Catalog number: 25509
Epoch time:      04302.21971354
Element set:     223
Inclination:       31.4348 deg
RA of node:       263.6705 deg
Eccentricity:    0.0356078
Arg of perigee:   298.6822 deg
Mean anomaly:      57.8082 deg
Mean motion:   14.27883230 rev/day
Decay rate:        2.0e-07 rev/day^2
Epoch rev:           31364
Checksum:              291

Satellite: AO-40
Catalog number: 26609
Epoch time:      04302.42252581
Element set:     452
Inclination:        9.4985 deg
RA of node:       337.0023 deg
Eccentricity:    0.7961664
Arg of perigee:   333.3828 deg
Mean anomaly:       2.0228 deg
Mean motion:    1.25585324 rev/day
Decay rate:      -1.00e-06 rev/day^2
Epoch rev:            1834
Checksum:              275



Read previous mail | Read next mail


 21.06.2026 23:34:26lGo back Go up